Regional Weather Roundup
Issued by NWS

Home | Current Version | Previous Version | Graphics & Text | Print | Product List | Glossary On
Versions: 1 2 3 4 5 6 7 8 9 10 11 12 13 14 15 16 17 18 19 20 21 22 23 24 25 26 27 28 29 30 31 32 33 34 35 36 37 38 39 40 41 42 43 44 45 46 47 48 49 50
000
ASUS43 KDMX 040407
RWRIA

WEATHER ROUNDUP FOR IOWA
NATIONAL WEATHER SERVICE DES MOINES IA
1100 PM CDT THU SEP 03 2015

NOTE: "FAIR" INDICATES FEW OR NO CLOUDS BELOW 12,000 FEET WITH NO
SIGNIFICANT WEATHER AND/OR OBSTRUCTIONS TO VISIBILITY.

* - THESE STATIONS ARE NOT NWS STATIONS...THUS NOT UNDER NWS
QUALITY CONTROL.  THEY ALSO DO NOT REPORT WEATHER SUCH
AS PRECIPITATION OR FOG.

IAZ001>003-012>014-020>022-031>034-043>046-040500-
   NORTHWEST IOWA

CITY           SKY/WX    TMP DP  RH WIND       PRES   REMARKS
CARROLL *      CLEAR     72  72 100 SE6       29.88S
CHEROKEE *     PTCLDY    75  73  94 S5        29.85S
DENISON *      CLEAR     77  72  83 S13       29.85S
LE MARS *      CLEAR     77  73  88 S8        29.83S
ORANGE CITY *  CLEAR     77  73  88 SE6       29.84S
SHELDON *      CLEAR     75  73  94 SE7       29.84S
SIOUX CITY     PTCLDY    77  70  79 SE10      29.81S
SPENCER        CLEAR     77  71  82 SE9       29.87S HAZE
STORM LAKE *   CLEAR     73  72  94 SE8       29.88S
$$

IAZ055>058-069>071-079>083-090>094-040500-
   SOUTHWEST IOWA

CITY           SKY/WX    TMP DP  RH WIND       PRES   REMARKS
ATLANTIC *     CLEAR     77  72  83 S9        29.88S
AUDUBON *      CLEAR     73  70  88 S3        29.90S
CLARINDA *     CLEAR     73  70  88 S5        29.91R
COUNCIL BLFS * CLEAR     77  72  83 S10G16    29.87S
CRESTON *      CLEAR     73  70  88 S6        29.93R
LAMONI         CLEAR     76  69  79 S7        29.92R
RED OAK *      CLEAR     75  72  88 S7        29.88S
SHENANDOAH *   CLEAR     75  70  83 S7        29.88S
$$

IAZ047>049-059>061-072>074-084-040500-
   CENTRAL IOWA

CITY           SKY/WX    TMP DP  RH WIND       PRES   REMARKS
AMES           PTCLDY    75  72  90 SE5       29.90R
ANKENY *       PTCLDY    75  73  94 CALM      29.90R
CHARITON *     CLEAR     73  70  88 SE6       29.92S
DES MOINES     PTCLDY    79  70  74 SE7       29.89S HX  82
GRINNELL*      PTCLDY    75  70  83 SE5       29.93S
KNOXVILLE *    CLEAR     75  70  83 SE5       29.90S
MARSHALLTOWN   MOCLDY    74  72  93 E3        29.92R
PELLA *        CLEAR     75  72  88 S5        29.92R
PERRY *          N/A     74  72  91 S6        29.89S
$$

IAZ004>006-015-016-023>025-035-036-040500-
   NORTH CENTRAL IOWA

CITY           SKY/WX    TMP DP  RH WIND       PRES   REMARKS
ALGONA *       PTCLDY    77  73  88 SE9       29.89S
CLARION *      CLEAR     75  72  88 S8        29.90S
ESTHERVILLE    CLEAR     74  72  93 SE6       29.88R
FORT DODGE *   CLEAR     77  70  78 SE5       29.90R
MASON CITY     PTCLDY    74  72  93 S7        29.92R
FOREST CITY *  PTCLDY    73  72  94 SE6       29.90S
IOWA FALLS *   CLOUDY    75  73  94 SE6       29.92S
$$

IAZ007>011-017>019-026>030-037>042-050>054-066-040500-
   NORTHEAST IOWA

CITY           SKY/WX    TMP DP  RH WIND       PRES   REMARKS
CEDAR RAPIDS   MOCLDY    74  73  97 CALM      29.92R
CHARLES CITY * PTCLDY    73  73 100 E5        29.93R
CLINTON *      CLEAR     73  70  88 CALM      29.95S
DECORAH *      CLEAR     77  73  88 SE5       29.93R
DUBUQUE        CLEAR     74  71  91 CALM      29.94F
MONTICELLO *   PTCLDY    72  72 100 CALM      29.93R
OELWEIN *        N/A     73  72  94 S5        29.94R
WATERLOO       MOCLDY    78  73  84 S7        29.90R HX  81
$$

IAZ064-065-067-068-078-040500-
   EAST CENTRAL IOWA

CITY           SKY/WX    TMP DP  RH WIND       PRES   REMARKS
DAVENPORT      CLEAR     73  70  90 S5        29.93S
IOWA CITY      PTCLDY    76  72  87 CALM      29.93R
MT. PLEASANT * CLEAR     75  66  73 CALM      29.94R
MUSCATINE *    PTCLDY    75  72  88 CALM      29.93R
QUAD CITIES    PTCLDY    77  71  82 CALM      29.92S
$$

IAZ062-063-075>077-085>089-095>099-040500-
   SOUTHEAST IOWA

CITY           SKY/WX    TMP DP  RH WIND       PRES   REMARKS
BURLINGTON     CLEAR     75  71  87 CALM      29.93S
FAIRFIELD *    CLEAR     73  68  83 CALM      29.93S
FORT MADISON * CLEAR     73  70  88 CALM      29.95S
KEOKUK *       CLEAR     73  72  94 CALM      29.93S
OSKALOOSA *    CLOUDY    75  70  83 SE5       29.93R
CENTERVILLE *  CLEAR     72  68  88 S6        29.94S
OTTUMWA        CLEAR     73  70  90 S5        29.91S
WASHINGTON *     N/A    N/A N/A N/A MISG        N/A
$$

ABBREVIATIONS USED IN REMARKS
   TC - TEMPERATURES IN CELSIUS
  WCI - WIND CHILL INDEX
   HX - HEAT INDEX
  VSB - VISIBILITY
$$



USA.gov is the U.S. government's official web portal to all federal, state and local government web resources and services.